This is the latest recevied weather packets stored in our database for station/object KC1BRV. If no packets are shown the sender has not sent any weather packets the latest 10 day(s).
| Time | Temp. | Humidity | Pressure | Rain* | Wind** | Luminosity | Snow |
|---|---|---|---|---|---|---|---|
| 1777235883 | 15° C | 41% | 1020.8 hPa | 0 mm | - | 46 W/m² | - |
| 1777235580 | 15° C | 41% | 1020.6 hPa | 0 mm | - | 47 W/m² | - |
| 1777235276 | 15° C | 41% | 1020.4 hPa | 0 mm | - | 48 W/m² | - |
| 1777234973 | 15° C | 41% | 1020.5 hPa | 0 mm | - | 49 W/m² | - |
| 1777234669 | 15° C | 41% | 1020.4 hPa | 0 mm | - | 50 W/m² | - |
| 1777234364 | 15° C | 40% | 1020.5 hPa | 0 mm | - | 50 W/m² | - |
| 1777234061 | 15° C | 41% | 1020.5 hPa | 0 mm | - | 51 W/m² | - |
| 1777233757 | 15° C | 41% | 1020.8 hPa | 0 mm | - | 52 W/m² | - |
| 1777233453 | 15° C | 39% | 1020.4 hPa | 0 mm | - | 117 W/m² | - |
| 1777233152 | 15.56° C | 39% | 1020.6 hPa | 0 mm | - | 472 W/m² | - |
| 1777232848 | 15° C | 39% | 1020.6 hPa | 0 mm | - | 484 W/m² | - |
| 1777232547 | 15.56° C | 40% | 1020.6 hPa | 0 mm | - | 499 W/m² | - |
| 1777232246 | 15.56° C | 39% | 1020.6 hPa | 0 mm | - | 509 W/m² | - |
| 1777231946 | 15° C | 39% | 1020.8 hPa | 0 mm | - | 523 W/m² | - |
| 1777231644 | 15° C | 41% | 1020.7 hPa | 0 mm | - | 536 W/m² | - |
| 1777231340 | 14.44° C | 43% | 1020.6 hPa | 0 mm | - | 546 W/m² | - |
| 1777231036 | 15° C | 40% | 1020.9 hPa | 0 mm | - | 561 W/m² | - |
| 1777230733 | 15° C | 40% | 1020.9 hPa | 0 mm | - | 570 W/m² | - |
| 1777230433 | 15° C | 41% | 1021 hPa | 0 mm | - | 585 W/m² | - |
| 1777230129 | 14.44° C | 43% | 1020.8 hPa | 0 mm | - | 597 W/m² | - |
| 1777229826 | 14.44° C | 42% | 1021 hPa | 0 mm | - | 608 W/m² | - |
| 1777229523 | 14.44° C | 40% | 1020.9 hPa | 0 mm | - | 619 W/m² | - |
| 1777229220 | 14.44° C | 40% | 1021.1 hPa | 0 mm | - | 628 W/m² | - |
| 1777228917 | 13.89° C | 44% | 1021.2 hPa | 0 mm | - | 637 W/m² | - |
| 1777228613 | 14.44° C | 40% | 1020.9 hPa | 0 mm | - | 648 W/m² | - |
* Rain latest hour (hover to see other rain measurements)
** Current wind speed in m/s (hover to see current wind gust speed)